TIBA-1

Last updated on Thu Oct 16 2025 00:02:49 GMT+0000 (Coordinated Universal Time)

1 44800U 19080A 25288.27840953 .00000141 00000+0 00000+0 0 9991 2 44800 0.0596 353.3197 0002688 219.5930 306.9217 1.00274865 21602
UTC large
Height (km)
Speed (km/s)
/
Latitude / Longitude
Inclination (degrees)
Orbital Period (minutes)
Azimuth
Elevation
Range (km)
Doppler Factor

Next 0 passes for location: London (51.5072 / 0.1276)

Sorry there are no passes over London.